NDF38 LRSM-LRTR

Flight info

Callsign NDF38
Flight time N/A
Altitude 28000
Route TISAD1B TISAD DCT RILAS DCT BUKAN DCT VASIS VASIS3S
Aircraft A320/M-SDE3FGHIRWY/LB1

Departure

Time N/A
Airport Satu Mare International Airport (LRSM)

Arrival

Time 2026-05-04 23:37
Airport Timișoara Traian Vuia International Airport (LRTR)
Time Latitude Longitude Altitude Speed Heading
2026-05-04 23:20 45.79955 21.47958 18229 ft 321 kts 234°
2026-05-04 23:20 45.78643 21.45373 17882 ft 320 kts 234°
2026-05-04 23:21 45.77340 21.42799 17553 ft 318 kts 234°
2026-05-04 23:21 45.76050 21.40250 17063 ft 315 kts 234°
2026-05-04 23:21 45.74768 21.37724 16490 ft 312 kts 234°
2026-05-04 23:21 45.73496 21.35218 15925 ft 310 kts 234°
2026-05-04 23:22 45.72475 21.32578 15378 ft 306 kts 251°
2026-05-04 23:22 45.72028 21.29636 14827 ft 302 kts 269°
2026-05-04 23:22 45.72195 21.26687 14363 ft 295 kts 285°
2026-05-04 23:22 45.72836 21.23926 13956 ft 292 kts 291°
2026-05-04 23:23 45.73532 21.21175 13556 ft 295 kts 291°
2026-05-04 23:23 45.74221 21.18428 13216 ft 294 kts 291°
2026-05-04 23:23 45.74906 21.15678 12933 ft 291 kts 291°
2026-05-04 23:23 45.75579 21.12962 12603 ft 288 kts 291°
2026-05-04 23:24 45.76239 21.10300 12052 ft 287 kts 291°
2026-05-04 23:24 45.76904 21.07629 11581 ft 282 kts 291°
2026-05-04 23:24 45.77557 21.04998 11192 ft 279 kts 291°
2026-05-04 23:24 45.78207 21.02387 10826 ft 279 kts 291°
2026-05-04 23:25 45.78865 20.99751 10452 ft 282 kts 291°
2026-05-04 23:25 45.79520 20.97121 10168 ft 280 kts 290°
2026-05-04 23:25 45.80174 20.94487 9898 ft 279 kts 290°
2026-05-04 23:25 45.80818 20.91884 9616 ft 276 kts 290°
2026-05-04 23:26 45.81450 20.89322 9295 ft 276 kts 289°
2026-05-04 23:26 45.82084 20.86738 9000 ft 273 kts 289°
2026-05-04 23:26 45.82709 20.84191 8499 ft 269 kts 289°
2026-05-04 23:26 45.83325 20.81685 8135 ft 265 kts 289°
2026-05-04 23:27 45.83934 20.79209 7907 ft 259 kts 289°
2026-05-04 23:27 45.84850 20.77064 7796 ft 251 kts 319°
2026-05-04 23:27 45.86368 20.75988 7620 ft 244 kts 352°
2026-05-04 23:27 45.88025 20.76251 7327 ft 241 kts 20°
2026-05-04 23:28 45.89603 20.77064 7035 ft 241 kts 21°
2026-05-04 23:28 45.91157 20.77861 6750 ft 240 kts 20°
2026-05-04 23:28 45.92647 20.78892 6454 ft 237 kts 43°
2026-05-04 23:28 45.93548 20.80794 6185 ft 230 kts 77°
2026-05-04 23:29 45.93592 20.83018 5932 ft 221 kts 108°
2026-05-04 23:29 45.93099 20.85081 5694 ft 217 kts 112°
2026-05-04 23:29 45.92593 20.87111 5457 ft 215 kts 112°
2026-05-04 23:29 45.92096 20.89119 5221 ft 212 kts 112°
2026-05-04 23:30 45.91604 20.91105 4987 ft 210 kts 112°
2026-05-04 23:30 45.91120 20.93065 4771 ft 206 kts 113°
2026-05-04 23:30 45.90649 20.94965 4560 ft 203 kts 112°
2026-05-04 23:30 45.90180 20.96861 4343 ft 200 kts 112°
2026-05-04 23:31 45.89718 20.98730 4152 ft 198 kts 112°
2026-05-04 23:31 45.89259 21.00583 3944 ft 197 kts 112°
2026-05-04 23:31 45.88802 21.02430 3748 ft 196 kts 111°
2026-05-04 23:31 45.88345 21.04272 3657 ft 197 kts 111°
2026-05-04 23:32 45.87886 21.06122 3581 ft 197 kts 112°
2026-05-04 23:32 45.87427 21.07957 3514 ft 191 kts 111°
2026-05-04 23:32 45.86999 21.09679 3432 ft 177 kts 111°
2026-05-04 23:32 45.86599 21.11287 3252 ft 171 kts 111°
2026-05-04 23:33 45.86205 21.12872 3043 ft 167 kts 111°
2026-05-04 23:33 45.85818 21.14428 2831 ft 164 kts 111°
2026-05-04 23:33 45.85437 21.15961 2622 ft 162 kts 111°
2026-05-04 23:33 45.85069 21.17438 2418 ft 154 kts 112°
2026-05-04 23:34 45.84722 21.18833 2236 ft 145 kts 112°
2026-05-04 23:34 45.84387 21.20178 2037 ft 142 kts 112°
2026-05-04 23:34 45.84059 21.21492 1848 ft 141 kts 112°
2026-05-04 23:34 45.83734 21.22790 1662 ft 140 kts 112°
2026-05-04 23:35 45.83407 21.24100 1475 ft 139 kts 112°
2026-05-04 23:35 45.83081 21.25405 1294 ft 139 kts 111°
2026-05-04 23:35 45.82758 21.26698 1109 ft 136 kts 110°
2026-05-04 23:35 45.82440 21.27967 930 ft 134 kts 109°
2026-05-04 23:36 45.82128 21.29215 750 ft 132 kts 109°
2026-05-04 23:36 45.81820 21.30445 581 ft 130 kts 109°
2026-05-04 23:36 45.81515 21.31664 406 ft 130 kts 109°
2026-05-04 23:36 45.81226 21.32815 352 ft 105 kts 110°
2026-05-04 23:37 45.81039 21.33559 352 ft 56 kts 110°
2026-05-04 23:37 45.80964 21.33852 348 ft 7 kts 107°
2026-05-04 23:37 45.80952 21.33866 353 ft 4 kts 148°
2026-05-04 23:37 45.80945 21.33892 349 ft 2 kts 62°
2026-05-04 23:38 45.80958 21.33893 345 ft 2 kts 349°
2026-05-04 23:38 45.80970 21.33870 354 ft 4 kts 292°
2026-05-04 23:38 45.80980 21.33822 345 ft 8 kts 286°
2026-05-04 23:38 45.81003 21.33706 351 ft 14 kts 286°
2026-05-04 23:39 45.81040 21.33557 343 ft 18 kts 290°
2026-05-04 23:39 45.81085 21.33378 349 ft 21 kts 289°
2026-05-04 23:39 45.81139 21.33166 342 ft 24 kts 290°
2026-05-04 23:39 45.81184 21.32993 349 ft 19 kts 290°
2026-05-04 23:40 45.81232 21.32795 351 ft 22 kts 289°
2026-05-04 23:40 45.81287 21.32578 354 ft 24 kts 290°
2026-05-04 23:40 45.81329 21.32410 355 ft 15 kts 290°
2026-05-04 23:40 45.81368 21.32257 346 ft 15 kts 290°
2026-05-04 23:41 45.81322 21.32127 348 ft 19 kts 202°
2026-05-04 23:41 45.81241 21.32085 344 ft 12 kts 199°
2026-05-04 23:41 45.81182 21.32055 349 ft 6 kts 199°
2026-05-04 23:41 45.81141 21.32037 347 ft 4 kts 191°
2026-05-04 23:42 45.81107 21.32023 342 ft 3 kts 199°
2026-05-04 23:42 45.81098 21.32019 347 ft 3 kts 199°
2026-05-04 23:42 45.81092 21.32016 345 ft 0 kts 199°